Historique des stations

Station météo de Graçay

Altitude de la station : 130 m







Données météorologiques pour le 16/09/2021
Date
Heure
Températures Humidité Point de rosée Vitesse
du vent
Direction Rafales Windchill Pression Pluviométrie
Cumul
Date
Heure
Températures Humidité Point de rosée Vitesse
du vent
Direction Rafales Windchill Pression Pluviométrie
Cumul
16/09/2021 12:5619.9 °C84 %17.2 °C2 km/hNE16 km/h20.0 1018 hPa-
16/09/2021 12:4119.8 °C85 %17.2 °C2 km/hNE16 km/h20.0 1018 hPa-
16/09/2021 12:2519.7 °C85 %17.2 °C6 km/hESE16 km/h20.0 1018 hPa-
16/09/2021 12:1019.8 °C85 %17.2 °C3 km/hESE16 km/h20.0 1018 hPa-
16/09/2021 11:5520.0 °C85 %17.2 °C3 km/hSE16 km/h20.0 1018 hPa-
16/09/2021 11:3920.1 °C85 %17.8 °C2 km/hSE16 km/h20.0 1017 hPa-
16/09/2021 11:2419.5 °C88 %17.8 °C5 km/hSE14 km/h19.4 1017 hPa-
16/09/2021 11:0918.9 °C91 %17.2 °C8 km/hN14 km/h18.9 1017 hPa-
16/09/2021 10:5318.4 °C92 %17.2 °C2 km/hNE14 km/h18.3 1017 hPa-
16/09/2021 10:3818.3 °C93 %17.2 °C2 km/hOSO14 km/h18.3 1017 hPa-
16/09/2021 10:2318.2 °C93 %17.2 °C3 km/hO14 km/h18.3 1017 hPa-
16/09/2021 10:0718.3 °C93 %17.2 °C2 km/hONO14 km/h18.3 1017 hPa-
16/09/2021 09:5218.1 °C93 %17.2 °C5 km/hN14 km/h18.3 1017 hPa-
16/09/2021 09:3618.0 °C94 %17.2 °C3 km/hN13 km/h17.8 1017 hPa-
16/09/2021 09:2117.9 °C95 %17.2 °C2 km/hENE8 km/h17.8 1017 hPa-
16/09/2021 09:0617.9 °C95 %17.2 °C-NNE6 km/h17.8 1017 hPa-
16/09/2021 08:5017.9 °C95 %17.2 °C2 km/hENE6 km/h17.8 1017 hPa-
16/09/2021 08:3517.8 °C95 %17.2 °C2 km/hNNO6 km/h17.8 1017 hPa-
16/09/2021 08:1917.8 °C96 %17.2 °C2 km/hNO6 km/h17.8 1017 hPa-
16/09/2021 08:0317.9 °C96 %17.2 °C2 km/hNE6 km/h17.8 1016 hPa-
16/09/2021 07:4817.8 °C96 %17.2 °C-NE6 km/h17.8 1016 hPa-
16/09/2021 07:3317.8 °C96 %17.2 °C-NE6 km/h17.8 1016 hPa-
16/09/2021 07:1717.8 °C96 %17.2 °C5 km/hNE6 km/h17.8 1016 hPa-
16/09/2021 07:0217.9 °C96 %17.2 °C3 km/hN6 km/h17.8 1016 hPa-
16/09/2021 06:5217.9 °C96 %17.2 °C3 km/hN6 km/h17.8 1016 hPa-
16/09/2021 06:3717.9 °C97 %17.8 °C-N6 km/h17.8 1016 hPa-
16/09/2021 06:3317.9 °C96 %17.2 °C-NE6 km/h17.8 1016 hPa-
16/09/2021 06:1717.9 °C96 %17.2 °C-E6 km/h17.8 1016 hPa-
16/09/2021 06:0217.9 °C96 %17.2 °C-E6 km/h17.8 1016 hPa-
16/09/2021 05:4717.9 °C96 %17.2 °C-ESE6 km/h17.8 1015 hPa-
16/09/2021 05:3117.9 °C97 %17.2 °C2 km/hNNE6 km/h17.8 1015 hPa-
16/09/2021 05:1617.8 °C96 %17.2 °C-NNE6 km/h17.8 1015 hPa-
16/09/2021 05:0117.7 °C97 %17.2 °C2 km/hONO6 km/h17.8 1015 hPa-
16/09/2021 04:4517.7 °C96 %17.2 °C2 km/hONO6 km/h17.8 1016 hPa-
16/09/2021 04:3017.7 °C96 %17.2 °C-ONO6 km/h17.8 1016 hPa-
16/09/2021 04:1417.7 °C96 %17.2 °C2 km/hONO6 km/h17.8 1016 hPa-
16/09/2021 03:5917.6 °C96 %17.2 °C2 km/hONO6 km/h17.8 1016 hPa-
16/09/2021 03:4417.6 °C96 %17.2 °C-ONO6 km/h17.8 1016 hPa-
16/09/2021 03:2817.3 °C96 %16.7 °C-ONO6 km/h17.2 1015 hPa-
16/09/2021 03:1317.1 °C96 %16.7 °C2 km/hONO6 km/h17.2 1015 hPa-
16/09/2021 02:5817.1 °C95 %16.1 °C-ONO6 km/h17.2 1015 hPa-
16/09/2021 02:4217.1 °C95 %16.1 °C2 km/hONO6 km/h17.2 1015 hPa-
16/09/2021 02:2717.2 °C95 %16.7 °C2 km/hONO6 km/h17.2 1015 hPa-
16/09/2021 02:1117.5 °C95 %16.7 °C-ONO6 km/h17.8 1015 hPa-
16/09/2021 01:5617.7 °C94 %16.7 °C3 km/hONO6 km/h17.8 1015 hPa-
16/09/2021 01:4117.9 °C94 %17.2 °C2 km/hO5 km/h17.8 1015 hPa-
16/09/2021 01:2518.0 °C94 %17.2 °C-O5 km/h17.8 1015 hPa-
16/09/2021 01:1018.2 °C94 %17.2 °C-O5 km/h18.3 1015 hPa-
16/09/2021 00:5518.3 °C94 %17.2 °C-O5 km/h18.3 1015 hPa-
16/09/2021 00:3918.2 °C94 %17.2 °C-O5 km/h18.3 1015 hPa-
16/09/2021 00:2418.1 °C94 %17.2 °C2 km/hO5 km/h18.3 1015 hPa-
16/09/2021 00:0918.1 °C94 %17.2 °C3 km/h--18.3 1015 hPa-


Minima :

Température : 17.1 °C
Humidité : 84 %
Point de rosée : 16.1 °C
Vent moyen : 2 km/h
Windchill : 17.2
Pression atm. : 1015 hPa
Maxima :

Température : 20.1 °C
Humidité : 97 %
Point de rosée : 17.8 °C
Vent moyen : 8 km/h
Windchill : 20.0
Pression atm. : 1018 hPa
Rafales max : 16 km/h
Cumul de pluie sur 24H : 0 mm

Graçay est une commune du département Cher (18).
La station météorologique du réseau de l'association la plus proche de Graçay est celle de Luçay-le-Libre



Icône Facebook Association Météo Centre Icône Twitter Association Météo Centre Icône Chaîne Youtube Association Météo Centre Icône contact Association Météo Centre Icône Insta Association Météo Centre